Regional Weather Roundup
Issued by NWS Charleston, WV

Home | Current Version | Previous Version | Text Only | Print | Product List | Glossary Off
Versions: 1 2 3 4 5 6 7 8 9 10 11 12 13 14 15 16 17 18 19 20 21 22 23 24 25 26 27 28 29 30 31 32 33 34 35 36 37 38 39 40 41 42 43 44 45 46 47 48 49 50

000
ASUS41 KRLX 281310
RWRRLX
West Virginia Regional Weather Roundup
National Weather Service Charleston WV
900 AM EDT SAT MAR 28 2015

Note: "fair" indicates few or no clouds below 12,000 feet with no
significant weather and/or obstructions to visibility.

WVZ003-281400-
Northern Panhandle of West Virginia

CITY           SKY/WX    TMP DP  RH WIND       PRES   REMARKS
WHEELING       SUNNY     16   6  65 NW13      30.12R WCI   2
$$

WVZ009-281400-
Northwest West Virginia

CITY           SKY/WX    TMP DP  RH WIND       PRES   REMARKS
PARKERSBURG    MOSUNNY   19   6  57 NW10G23   30.21R WCI   7
$$

WVZ006-281400-
Western West Virginia

CITY           SKY/WX    TMP DP  RH WIND       PRES   REMARKS
HUNTINGTON     SUNNY     24  13  62 N7        30.19R
$$

WVZ015-281400-
West Central West Virginia

CITY           SKY/WX    TMP DP  RH WIND       PRES   REMARKS
CHARLESTON     PTSUNNY   23  12  62 N8G17     30.16R
$$

WVZ022-031-281400-
North Central West Virginia

CITY           SKY/WX    TMP DP  RH WIND       PRES   REMARKS
CLARKSBURG     PTSUNNY   17   5  59 N13       30.10R WCI   4
MORGANTOWN     CLOUDY    17   4  56 NW7       30.10R WCI   8
$$

WVZ025-035-042-045-281400-
Southern West Virginia

CITY           SKY/WX    TMP DP  RH WIND       PRES   REMARKS
BECKLEY        MOSUNNY   19   2  47 W20G29    30.01R WCI   3
LOGAN          PTSUNNY   23   5  46 NW12      30.08R
BLUEFIELD      PTSUNNY   20   3  48 NW12      29.98R WCI   8
LEWISBURG      CLOUDY    22  10  61 W8G18     29.98R
$$

WVZ047-281400-
Northern Mountains of West Virginia

CITY           SKY/WX    TMP DP  RH WIND       PRES   REMARKS
ELKINS         MOSUNNY   15   3  59 NW8       30.02R WCI   4
$$

WVZ052-281400-
Eastern Panhandle of West Virginia

CITY           SKY/WX    TMP DP  RH WIND       PRES   REMARKS
MARTINSBURG    SUNNY     26   3  37 NW18G28   30.02R
PETERSBURG     MOSUNNY   23   1  38 NW14G20   30.06R
$$



USA.gov is the U.S. government's official web portal to all federal, state and local government web resources and services.